Starlink 5226

operational
NORAD ID: 54056 Int'l Des: 2022-136 Owner: SPXS Country: US Constellation: starlink
LEOCIRCULAR

关于 Starlink 5226

正在加载描述...

实时位置

正在加载3D地球...

即将过境

高度历史

Altitude vs Time

uPlot chart will show altitude changes over time

两行轨道根数

1 54056U 22136F 25303.94987292 .00000191 00000-0 30102-4 0 9998
2 54056 53.2156 206.1305 0001506 82.5984 277.5180 15.08842325167269
Epoch: Oct 30, 2025 • Age: 20 hours

当前状态

高度 559.3 km
速度 7.58 km/s
星下点 -53.25°S, 140.87°E
发射日期 Oct 20, 2022
运行时间 3 years
类型 internet

技术详情

分类 Payload
质量 305.00 kg
干质量 290.00 kg
总质量 305.00 kg
长度 0.20 m
直径 2.80 m
跨度 9.00 m
形状 Box + pan
制造商 SPXS
平台类型 Starlink
阶段状态 In Orbit
所有者/国家 SPXS/US

大型星座

Loading constellations...